CW3712 Union NJ US current weather conditions

sailwx.info

Wind from 297 at 9 knots gusting 12

Air temperature 4.4° C
Dewpoint -7.3° C

Last reported at 2020-Jan-28 21:02 UTC.
Time now 2020-Jan-28 22:06 UTC

Location: N 40°41' W 074°14'.
View on Google Maps.

See reports from other nearby stations

  
Tides and Currents Weather Stations Pressure Air Temp Water Temp Dewpoint Dewpoint Depression Visibility Wind Speed Wind Dir Waves Ship Positions
date/time (UTC)wind fromknots sea level pressurealtimeterstation pressurevisibilityair tempwater tempwave heightnotes
2020-Jan-28 21:02 297 9 gusting 12 4.4
2020-Jan-28 20:56 310 5 5.0
2020-Jan-28 20:47 303 5.0
2020-Jan-28 20:36 309 5.0
2020-Jan-28 20:30 322 3 gusting 9 4.4
2020-Jan-28 20:26 326 4.4
2020-Jan-28 20:17 350 7 gusting 13 4.4
2020-Jan-28 20:06 342 4.4
2020-Jan-28 20:00 317 1 gusting 13 4.4
2020-Jan-28 19:56 307 8 4.4
2020-Jan-28 19:48 297 9 gusting 13 4.4
2020-Jan-28 19:36 318 10 5.0
2020-Jan-28 19:31 293 11 gusting 21 4.4
2020-Jan-28 19:26 284 13 5.0
2020-Jan-28 19:17 321 9 gusting 15 4.4
2020-Jan-28 19:06 297 3 5.0
2020-Jan-28 19:01 314 11 gusting 13 5.0
2020-Jan-28 18:56 323 7 5.6
2020-Jan-28 18:47 311 11 gusting 16 5.0
2020-Jan-28 18:45 325 10 gusting 16 5.0
2020-Jan-28 18:36 326 16 5.0
2020-Jan-28 18:32 325 10 gusting 14 5.0
2020-Jan-28 18:26 296 10 5.6
2020-Jan-28 18:16 305 12 gusting 18 5.0
2020-Jan-28 18:06 286 6 5.6
2020-Jan-28 18:02 313 13 gusting 13 5.6
2020-Jan-28 17:56 318 6 6.1
2020-Jan-28 17:47 313 12 6.1
2020-Jan-28 17:36 307 2 6.1
2020-Jan-28 17:30 314 7 gusting 13 5.6
2020-Jan-28 17:17 305 6 6.1
2020-Jan-28 17:06 308 13 5.6
2020-Jan-28 17:00 317 9 gusting 16 5.6
2020-Jan-28 16:56 303 5 5.6
2020-Jan-28 16:47 319 4 5.6
2020-Jan-28 16:36 294 10 5.6
2020-Jan-28 16:34 309 4 gusting 15 5.6
2020-Jan-28 16:26 306 11 5.6
2020-Jan-28 16:17 294 0 5.6
2020-Jan-28 16:06 320 5 5.0
2020-Jan-28 16:01 299 5 gusting 11 5.0
2020-Jan-28 15:56 296 1 5.0
2020-Jan-28 15:47 306 2 gusting 6 5.0
2020-Jan-28 15:36 305 1 5.0
2020-Jan-28 15:31 309 2 gusting 8 4.4
2020-Jan-28 15:26 311 3 4.4
2020-Jan-28 15:17 303 18 4.4
2020-Jan-28 15:15 305 7 gusting 12 3.9
2020-Jan-28 15:06 310 3 4.4
2020-Jan-28 15:03 302 0 gusting 11 3.9
2020-Jan-28 14:56 285 7 3.9
2020-Jan-28 14:48 306 5 gusting 9 3.9
2020-Jan-28 14:45 294 5 gusting 9 3.9
2020-Jan-28 14:36 315 0 3.9
2020-Jan-28 14:32 315 1 gusting 9 3.3
2020-Jan-28 14:26 320 3 3.9
2020-Jan-28 14:17 331 4 3.9
2020-Jan-28 14:06 320 3.3
2020-Jan-28 14:01 316 1 gusting 6 3.3
2020-Jan-28 13:56 300 2 3.3
2020-Jan-28 13:46 320 0 3.3
2020-Jan-28 13:36 281 1 3.3
2020-Jan-28 13:30 310 1 gusting 5 2.8
2020-Jan-28 13:26 298 8 3.3
2020-Jan-28 13:17 302 3 3.3
2020-Jan-28 13:06 293 4 3.3
2020-Jan-28 13:00 292 4 gusting 6 2.8
2020-Jan-28 12:56 290 4 3.3
2020-Jan-28 12:47 293 3 gusting 6 2.8
2020-Jan-28 12:36 293 0 3.3
2020-Jan-28 12:31 294 0 gusting 4 3.3
2020-Jan-28 12:26 294 3.3
2020-Jan-28 12:18 296 1 gusting 4 2.8
2020-Jan-28 12:06 301 2 2.8
2020-Jan-28 12:02 302 1 gusting 6 2.8
2020-Jan-28 11:56 297 7 2.8
2020-Jan-28 11:47 304 4 gusting 6 2.8
2020-Jan-28 11:36 315 2 2.8
2020-Jan-28 11:30 325 1 gusting 6 2.8
2020-Jan-28 11:26 324 0 2.8
2020-Jan-28 11:17 301 0 2.8
2020-Jan-28 11:06 293 2 3.3
2020-Jan-28 11:01 291 3.3
2020-Jan-28 10:56 292 0 3.3
2020-Jan-28 10:46 308 4 3.3
2020-Jan-28 10:36 305 2 3.3
2020-Jan-28 10:30 312 0 gusting 6 2.8
2020-Jan-28 10:16 305 3.3
2020-Jan-28 10:06 312 4 3.3
2020-Jan-28 10:00 313 2 gusting 6 2.8
2020-Jan-28 09:56 312 2 2.8
2020-Jan-28 09:47 313 0 2.8
2020-Jan-28 09:36 313 4 2.8
2020-Jan-28 09:31 317 1 gusting 8 2.8
2020-Jan-28 09:26 311 0 3.3
2020-Jan-28 09:17 319 5 3.3
2020-Jan-28 09:06 299 2 3.3
2020-Jan-28 09:01 312 2 gusting 4 3.3
2020-Jan-28 08:56 308 1 3.3
2020-Jan-28 08:47 324 8 3.3
2020-Jan-28 08:36 312 2 3.3
2020-Jan-28 08:30 302 4 gusting 7 3.3
2020-Jan-28 08:26 294 6 3.9
2020-Jan-28 08:17 277 2 gusting 4 3.3
2020-Jan-28 08:06 291 0 3.9
2020-Jan-28 08:01 293 0 gusting 5 3.3
2020-Jan-28 07:56 292 3 3.9
2020-Jan-28 07:47 293 0 3.9
2020-Jan-28 07:36 299 4 3.9
2020-Jan-28 07:32 297 1 gusting 4 3.9
2020-Jan-28 07:26 296 1 3.9
2020-Jan-28 07:17 295 3.9
2020-Jan-28 07:06 300 3 3.9
2020-Jan-28 07:02 314 0 gusting 4 3.9
2020-Jan-28 06:56 314 2 3.9
2020-Jan-28 06:47 320 1 3.9
2020-Jan-28 06:36 320 3.9
2020-Jan-28 06:30 320 0 gusting 8 3.9
2020-Jan-28 06:17 310 3 3.9
2020-Jan-28 06:06 310 3.9
2020-Jan-28 06:00 310 3.3
2020-Jan-28 05:56 310 2 3.9
2020-Jan-28 05:47 310 3.9
2020-Jan-28 05:36 310 3.9
2020-Jan-28 05:31 310 1 gusting 4 3.9
2020-Jan-28 05:26 309 0 3.9
2020-Jan-28 05:16 302 0 3.9
2020-Jan-28 05:06 318 4 3.9
2020-Jan-28 05:03 301 2 3.9
2020-Jan-28 04:56 304 4 4.4
2020-Jan-28 04:47 310 2 3.9
2020-Jan-28 04:36 304 4 4.4
2020-Jan-28 04:30 310 3 gusting 6 3.9
2020-Jan-28 04:26 320 3 4.4
2020-Jan-28 04:18 319 2 gusting 7 3.9
2020-Jan-28 04:06 307 8 4.4
2020-Jan-28 04:01 352 0 gusting 3 4.4
2020-Jan-28 03:56 355 1 5.0
2020-Jan-28 03:47 308 5.0
2020-Jan-28 03:45 308 0 gusting 4 4.4
2020-Jan-28 03:36 305 1 5.0
2020-Jan-28 03:31 305 5.0
2020-Jan-28 03:26 305 5.6
2020-Jan-28 03:17 305 5.6
2020-Jan-28 03:06 305 5.6
2020-Jan-28 03:00 305 5.6
2020-Jan-28 02:56 304 6.1
2020-Jan-28 02:46 305 6.7
2020-Jan-28 02:36 305 6.7
2020-Jan-28 02:30 305 6.7
2020-Jan-28 02:17 305 6.7
2020-Jan-28 02:06 305 7.2
2020-Jan-28 02:01 305 7.2
2020-Jan-28 01:56 305 7.2
2020-Jan-28 01:47 305 7.2
2020-Jan-28 01:36 304 7.8
2020-Jan-28 01:31 305 7.8
2020-Jan-28 01:26 305 0 7.8
2020-Jan-28 01:16 305 0 7.8
2020-Jan-28 01:06 305 1 6.7
2020-Jan-28 01:01 305 6.7
2020-Jan-28 00:56 305 1 7.8
2020-Jan-28 00:47 306 7.2
2020-Jan-28 00:36 307 7.8
2020-Jan-28 00:31 307 7.2
2020-Jan-28 00:26 307 7.8
2020-Jan-28 00:16 307 8.3
2020-Jan-28 00:06 307 7.2
2020-Jan-28 00:00 307 6.7
2020-Jan-27 23:56 307 6.7
2020-Jan-27 23:47 307 6.1
2020-Jan-27 23:36 307 0 6.1
2020-Jan-27 23:31 307 6.1
2020-Jan-27 23:26 307 6.1
2020-Jan-27 23:16 308 0 6.1
2020-Jan-27 23:06 310 0 6.7
2020-Jan-27 23:01 309 6.1
2020-Jan-27 22:56 309 6.7
2020-Jan-27 22:46 311 6.7
2020-Jan-27 22:36 310 0 6.7
2020-Jan-27 22:31 311 1 gusting 5 6.1
2020-Jan-27 22:26 315 1 6.7
2020-Jan-27 22:18 309 1 gusting 2 6.7
2020-Jan-27 22:06 309 0 6.7
2020-Jan-27 22:01 309 1 gusting 4 6.7
2020-Jan-27 21:56 317 2 6.7
2020-Jan-27 21:47 323 0 6.7
2020-Jan-27 21:36 297 3 7.2
2020-Jan-27 21:31 300 1 gusting 5 7.2
2020-Jan-27 21:26 293 3 7.8
2020-Jan-27 21:16 289 4 7.8
2020-Jan-27 21:06 300 4 7.8
2020-Jan-27 21:02 275 0 gusting 9 7.2
2020-Jan-27 20:56 279 7 7.8
2020-Jan-27 20:48 285 4 gusting 11 7.2
2020-Jan-27 20:45 278 4 gusting 11 7.2
2020-Jan-27 20:36 261 0 7.8
2020-Jan-27 20:31 279 0 gusting 9 7.8
2020-Jan-27 20:26 272 6 7.8
2020-Jan-27 20:16 293 6 7.8
2020-Jan-27 20:06 268 3 7.8
2020-Jan-27 20:01 287 2 gusting 7 7.2
2020-Jan-27 19:56 288 6 7.8
2020-Jan-27 19:47 276 7.8
2020-Jan-27 19:36 277 6 7.8
2020-Jan-27 19:30 300 2 gusting 6 7.8
2020-Jan-27 19:26 250 1 8.3
2020-Jan-27 19:17 235 1 8.3
2020-Jan-27 19:06 226 7.8
2020-Jan-27 19:01 229 0 gusting 6 7.2
2020-Jan-27 18:56 233 7.8
2020-Jan-27 18:48 230 0 gusting 6 7.2
2020-Jan-27 18:45 238 1 gusting 6 7.2
2020-Jan-27 18:36 227 7.8
2020-Jan-27 18:31 218 1 gusting 7 7.2
2020-Jan-27 18:26 230 6 7.2
2020-Jan-27 18:16 218 0 6.7
2020-Jan-27 18:06 233 2 7.2
2020-Jan-27 18:00 235 5 gusting 11 7.2
2020-Jan-27 17:47 238 0 7.2
2020-Jan-27 17:36 234 0 7.2
2020-Jan-27 17:32 243 2 gusting 6 6.7
2020-Jan-27 17:27 244 3 6.7
2020-Jan-27 17:17 219 3 6.7
2020-Jan-27 17:15 246 7 gusting 14 6.1
2020-Jan-27 17:06 239 2 7.2
2020-Jan-27 17:01 230 1 gusting 6 6.7
2020-Jan-27 16:56 225 2 6.7
2020-Jan-27 16:47 237 6 6.7
2020-Jan-27 16:36 227 4 6.7
2020-Jan-27 16:31 242 2 gusting 11 6.1
2020-Jan-27 16:26 245 6.7
2020-Jan-27 16:17 236 1 gusting 10 6.1
2020-Jan-27 16:07 227 3 6.1
2020-Jan-27 16:00 246 3 gusting 8 6.7
2020-Jan-27 15:56 242 0 6.7
2020-Jan-27 15:47 245 4 gusting 10 6.1
2020-Jan-27 15:36 228 0 6.1
2020-Jan-27 15:31 218 8 gusting 11 6.1
2020-Jan-27 15:27 239 1 6.7
2020-Jan-27 15:17 240 6 6.1
2020-Jan-27 15:06 230 6 6.7
2020-Jan-27 15:00 232 2 gusting 6 6.1
2020-Jan-27 14:56 232 2 6.7
2020-Jan-27 14:47 233 6.1
2020-Jan-27 14:36 238 0 5.6
2020-Jan-27 14:30 240 3 gusting 5 5.6
2020-Jan-27 14:26 239 2 6.1
2020-Jan-27 14:17 239 3 5.6
2020-Jan-27 14:06 239 2 5.0
2020-Jan-27 14:03 230 2 gusting 4 5.0
2020-Jan-27 13:56 230 2 5.6
2020-Jan-27 13:47 230 0 5.6
2020-Jan-27 13:36 230 2 5.6
2020-Jan-27 13:31 230 0 gusting 3 5.6
2020-Jan-27 13:26 229 5 5.6
2020-Jan-27 13:16 231 2 5.6
2020-Jan-27 13:06 230 0 5.0
2020-Jan-27 13:00 231 1 gusting 6 4.4
2020-Jan-27 12:56 230 1 5.0
2020-Jan-27 12:46 232 5.0
2020-Jan-27 12:36 231 6 5.0
2020-Jan-27 12:31 229 4.4
2020-Jan-27 12:26 229 4 5.0
2020-Jan-27 12:17 225 0 gusting 6 5.0
2020-Jan-27 12:06 226 1 5.0
2020-Jan-27 12:01 226 1 gusting 6 4.4
2020-Jan-27 11:56 226 0 4.4
2020-Jan-27 11:47 230 3 5.0
2020-Jan-27 11:36 230 1 5.0
2020-Jan-27 11:32 230 1 gusting 6 4.4
2020-Jan-27 11:26 228 5.0
2020-Jan-27 11:17 230 5.0
2020-Jan-27 11:06 229 1 4.4
2020-Jan-27 11:02 229 2 gusting 4 4.4
2020-Jan-27 10:56 229 3 5.0
2020-Jan-27 10:46 228 2 5.0
2020-Jan-27 10:36 229 1 5.0
2020-Jan-27 10:32 229 0 gusting 5 4.4
2020-Jan-27 10:30 229 1 gusting 5 4.4
2020-Jan-27 10:16 229 5.0
2020-Jan-27 10:06 230 1 5.0
2020-Jan-27 10:01 230 0 gusting 3 4.4
2020-Jan-27 09:56 231 4 5.0
2020-Jan-27 09:47 229 0 5.0
2020-Jan-27 09:36 231 5.0
2020-Jan-27 09:30 232 1 gusting 5 4.4
2020-Jan-27 09:26 233 1 5.0
2020-Jan-27 09:17 233 0 5.0
2020-Jan-27 09:06 232 2 5.0
2020-Jan-27 09:00 233 1 gusting 3 4.4
2020-Jan-27 08:56 233 0 5.0
2020-Jan-27 08:47 233 5.0
2020-Jan-27 08:36 234 3 4.4
2020-Jan-27 08:30 234 0 gusting 2 5.0
2020-Jan-27 08:26 234 1 5.0
2020-Jan-27 08:17 235 1 gusting 5 4.4
2020-Jan-27 08:06 234 1 5.0
2020-Jan-27 08:00 234 2 gusting 4 5.0
2020-Jan-27 07:56 236 5.6
2020-Jan-27 07:47 236 1 gusting 3 5.0
2020-Jan-27 07:36 237 0 5.6
2020-Jan-27 07:31 237 0 gusting 2 5.0
2020-Jan-27 07:26 237 1 5.0
2020-Jan-27 07:17 237 0 gusting 2 5.0
2020-Jan-27 07:15 237 0 gusting 1 5.0
2020-Jan-27 07:06 237 5.0
2020-Jan-27 07:01 238 0 gusting 1 4.4
2020-Jan-27 06:56 237 5.0
2020-Jan-27 06:46 237 4.4
2020-Jan-27 06:36 238 5.0
2020-Jan-27 06:31 238 5.0
2020-Jan-27 06:26 237 1 5.0
2020-Jan-27 06:16 238 5.0
2020-Jan-27 06:06 238 5.0
2020-Jan-27 06:00 237 5.0
2020-Jan-27 05:56 238 1 5.0
2020-Jan-27 05:46 238 5.6
2020-Jan-27 05:36 238 5.0
2020-Jan-27 05:32 238 5.0
2020-Jan-27 05:26 238 5.6
2020-Jan-27 05:16 238 5.6
2020-Jan-27 05:15 238 5.0
2020-Jan-27 05:06 238 5.6
2020-Jan-27 05:00 238 5.6
2020-Jan-27 04:56 238 6.1
2020-Jan-27 04:48 238 6.1
2020-Jan-27 04:36 238 6.7
2020-Jan-27 04:31 238 5.6
2020-Jan-27 04:26 238 5.6
2020-Jan-27 04:17 238 0 gusting 2 5.6
2020-Jan-27 04:06 238 1 5.6
2020-Jan-27 04:01 238 0 gusting 3 5.6
2020-Jan-27 03:56 237 2 6.1
2020-Jan-27 03:48 237 0 gusting 2 6.1
2020-Jan-27 03:36 237 6.1
2020-Jan-27 03:31 237 6.1
2020-Jan-27 03:26 237 6.7
2020-Jan-27 03:17 238 6.1
2020-Jan-27 03:06 237 0 6.7
2020-Jan-27 03:04 237 6.1
2020-Jan-27 02:56 237 2 6.7
2020-Jan-27 02:47 238 0 6.7
2020-Jan-27 02:36 238 0 6.7
2020-Jan-27 02:31 238 0 gusting 2 6.1
2020-Jan-27 02:26 239 0 6.7
2020-Jan-27 02:17 242 0 gusting 3 6.1
2020-Jan-27 02:06 242 1 6.7
2020-Jan-27 02:02 243 1 gusting 4 6.1
2020-Jan-27 01:56 243 0 6.1
2020-Jan-27 01:47 244 1 gusting 4 6.1
2020-Jan-27 01:36 247 1 6.1
2020-Jan-27 01:31 245 1 gusting 4 6.1
2020-Jan-27 01:26 246 3 6.1
2020-Jan-27 01:17 246 0 6.1
2020-Jan-27 01:06 245 0 6.1
2020-Jan-27 01:05 243 2 gusting 4 6.1
2020-Jan-27 00:56 240 6 6.1
2020-Jan-27 00:46 239 5 6.7
2020-Jan-27 00:36 238 2 6.7
2020-Jan-27 00:32 235 2 gusting 4 6.7
2020-Jan-27 00:26 232 4 6.7
2020-Jan-27 00:17 252 0 gusting 1 7.2
2020-Jan-27 00:06 256 0 7.2
2020-Jan-27 00:00 257 2 gusting 5 6.7
2020-Jan-26 23:56 258 0 6.7
2020-Jan-26 23:47 265 2 6.7
2020-Jan-26 23:36 265 2 6.7
2020-Jan-26 23:31 271 2 gusting 6 6.7
2020-Jan-26 23:26 254 11 7.2
2020-Jan-26 23:17 263 7.8
2020-Jan-26 23:06 259 1 7.2
2020-Jan-26 23:00 265 2 gusting 5 7.2
2020-Jan-26 22:56 265 3 7.2
2020-Jan-26 22:47 271 3 gusting 8 7.2
2020-Jan-26 22:36 268 1 7.2
2020-Jan-26 22:32 269 2 gusting 3 7.8
2020-Jan-26 22:26 270 0 7.8
2020-Jan-26 22:16 275 2 7.8
2020-Jan-26 22:06 267 1 7.8
2020-Jan-26 22:04 266 0 gusting 7 7.8